Regional Weather Roundup
Issued by NWS

Home | Current Version | Previous Version | Graphics & Text | Print | Product List | Glossary On
Versions: 1 2 3 4 5 6 7 8 9 10 11 12 13 14 15 16 17 18 19 20 21 22 23 24 25 26 27
000
ASUS45 KCYS 211710
RWRWY

WYOMING REGIONAL WEATHER ROUNDUP
NATIONAL WEATHER SERVICE CHEYENNE WY
1000 AM MST WED FEB 21 2018

NOTE:  "FAIR" INDICATES FEW OR NO CLOUDS BELOW 12,000 FEET
WITH NO SIGNIFICANT WEATHER AND/OR OBSTRUCTIONS TO VISIBILITY.

WYZ001-211800-
YELLOWSTONE NATIONAL PARK

CITY           SKY/WX    TMP DP  RH WIND       PRES   REMARKS
LK YELLOWSTONE   N/A     -2  -5  87 CALM      29.97S
W YELLOWSTONE  NOT AVBL

$$
WYZ002>013-054>058-071-098>099-211800-
NORTHERN WYOMING

CITY           SKY/WX    TMP DP  RH WIND       PRES   REMARKS
JACKSON        FAIR       7  -1  70 SE7       30.07F WCI  -5
CODY           FAIR      18  -2  41 S16       30.08F WCI   3
GREYBULL       FAIR     -17 -21  82 CALM      30.24R
WORLAND        FAIR     -10 -12  91 S5        30.20S WCI -22
SHERIDAN       FAIR      -4 -12  68 CALM      30.14S
BUFFALO        FAIR       8  -5  55 S3        30.08S
GILLETTE       FAIR       7  -7  52 VRB7      30.14F WCI  -5
HULETT         FAIR      14   0  52 SW12      30.16F WCI   0
NEWCASTLE      FAIR      -6 -15  65 CALM      30.22F

$$
WYZ014>020-022>026-101>103-211800-
CENTRAL WYOMING

CITY           SKY/WX    TMP DP  RH WIND       PRES   REMARKS
BIG PINEY      FAIR      -6  -7  95 SW3       30.09F
PINEDALE       PTSUNNY   -2  -8  78 NW3       30.07F
DUBOIS           N/A    N/A N/A N/A MISG        N/A
LANDER         FAIR      -3  -5  90 CALM      30.11S
RIVERTON       FAIR      -4  -6  91 SE3       30.12S
CASPER         FAIR      10   0  63 W13       30.13S WCI  -5
DOUGLAS        FAIR     -11 -16  78 NW3       30.16F

$$
WYZ021-027>030-104>119-211800-
SOUTHERN WYOMING

CITY           SKY/WX    TMP DP  RH WIND       PRES   REMARKS
EVANSTON       CLOUDY     5  -7  57 SE5       30.05R WCI  -4
FORT BRIDGER   FAIR      -6  -9  84 NW5       30.10S WCI -17
ROCK SPRINGS   FAIR      -2  -6  83 CALM      30.09S
DIXON          FAIR      -2 -10  66 CALM      30.14S
RAWLINS        FAIR       7   0  73 S5        30.09S WCI  -2
SARATOGA       FAIR       5  -4  66 SE3       30.09S
LARAMIE        FAIR       9   1  70 W3        30.05S
CHEYENNE       FAIR      19  12  74 S5        30.12F WCI  12
TORRINGTON     FAIR       8   3  80 CALM      30.24R
PINE BLUFFS    FAIR      10   7  85 MISG      30.22S

$$




USA.gov is the U.S. government's official web portal to all federal, state and local government web resources and services.